Regional Weather Roundup
Issued by NWS

Home | Current Version | Previous Version | Graphics & Text | Print | Product List | Glossary On
Versions: 1 2 3 4 5 6 7 8 9 10 11 12 13 14 15 16 17 18 19 20 21 22 23 24 25 26 27 28 29 30 31 32 33 34 35 36 37 38 39 40 41 42 43 44 45 46 47 48 49 50
000
ASUS43 KLOT 220458
RWRIL

ILLINOIS REGIONAL WEATHER ROUNDUP
NATIONAL WEATHER SERVICE CHICAGO/ROMEOVILLE IL
1200 AM CDT MON SEP 22 2014

NOTE: "FAIR" INDICATES FEW OR NO CLOUDS BELOW 12,000 FEET WITH NO
SIGNIFICANT WEATHER AND/OR OBSTRUCTIONS TO VISIBILITY.

* THESE STATIONS ARE NOT UNDER NWS QUALITY CONTROL. THEY ALSO MAY NOT
  REPORT WEATHER SUCH AS PRECIPITATION OR FOG.

ILZ001-002-007-009-015-016-024-220600-
NORTHWEST ILLINOIS

CITY           SKY/WX    TMP DP  RH WIND       PRES   REMARKS
MOLINE         CLEAR     56  46  69 NW5       30.18R
$$

ILZ003-004-008-010-011-017-018-220600-
NORTH CENTRAL ILLINOIS

CITY           SKY/WX    TMP DP  RH WIND       PRES   REMARKS
ROCKFORD       NOT AVBL
$$

ILZ005-006-012>014-019>023-220600-
NORTHEAST ILLINOIS

CITY           SKY/WX    TMP DP  RH WIND       PRES   REMARKS
CHICAGO-OHARE  PTCLDY    53  43  68 NW7       30.14S
CHICAGO-MIDWAY PTCLDY    54  45  71 NW8       30.13S
AURORA         CLEAR     46  42  86 N5        30.16R
WAUKEGAN       CLEAR     47  42  83 NW5       30.14S
DUPAGE AIRPORT CLEAR     45  42  89 N3        30.15R
WHEELING       CLEAR     49  44  83 NW3       30.16S
NORTHERLY ISL    N/A     56  46  69 MISG        N/A
$$

LMZ740>746-220600-
SOUTHERN LAKE MICHIGAN

STATION/POSITION SKY/WX   TEMP    WIND        PRES    VSBY  WAVE
                          AIR SEA DIR/SP/G                  HT/PER
                          (F)     (DEG/KT/KT) (MB)    (MI)  (FT/S)
SOUTHERN BUOY              54 61  350/ 19/ 23 1020.1R         7/ 8
WAUKEGAN HARBOR            51     330/  6/  9   N/A
HARRISON CRIB              58     350/ 18/ 20   N/A
BURNHAM HARBOR             57     320/  9/ 16   N/A
CALUMET HARBOR             57     340/ 10/ 18 1018.9R
MICHIGAN CITY              57     350/ 23/ 27   N/A
MICHIGAN CITY 6N           58 64   10/ 17/ 25   N/A           9/ 7
ST. JOSEPH                 57 65  360/ 19/ 27   N/A           8/ 7
$$

ILZ025>027-034>036-040-047-049-050-058-095>099-220600-
WEST-CENTRAL ILLINOIS

CITY           SKY/WX    TMP DP  RH WIND       PRES   REMARKS
$$

ILZ028>032-037-038-041>044-048-051>054-059>061-220600-
CENTRAL ILLINOIS

CITY           SKY/WX    TMP DP  RH WIND       PRES   REMARKS
PEORIA         NOT AVBL
SPRINGFIELD    CLEAR     54  50  86 NW5       30.16S
TAYLORVILLE    NOT AVBL
$$

ILZ033-039-045-046-055>057-062-063-220600-
EAST-CENTRAL ILLINOIS

CITY           SKY/WX    TMP DP  RH WIND       PRES   REMARKS
$$

ILZ079-100>102-220600-
SOUTHWEST ILLINOIS

CITY           SKY/WX    TMP DP  RH WIND       PRES   REMARKS
$$

ILZ064>066-069>071-074>076-080>082-084>086-088>090-092>094-220600-
SOUTH-CENTRAL ILLINOIS

CITY           SKY/WX    TMP DP  RH WIND       PRES   REMARKS
CARBONDALE     CLEAR     59  51  75 N5        30.14R
$$

ILZ067-068-072-073-078-083-087-091-220600-
SOUTHEAST ILLINOIS

CITY           SKY/WX    TMP DP  RH WIND       PRES   REMARKS
$$

ABBREVIATIONS USED IN REMARKS
   TC - TEMPERATURE IN CELSIUS
  WCI - WIND CHILL INDEX
   HX - HEAT INDEX
  VSB - VISIBILITY
$$



USA.gov is the U.S. government's official web portal to all federal, state and local government web resources and services.